Hourly Data Report for October 11, 2015

All times are specified in Local Standard Time (LST). Add 1 hour to adjust for Daylight Saving Time where and when it is observed.

IQALUIT CLIMATE
NUNAVUT

63°44'50.000" N
68°32'40.000" W
33.50 m
2402592
71321
XFB

Download Data

Hourly Data (October 2015)
Hourly Data Report for October 11, 2015
Temp Definition
°C
Dew Point Temp Definition
°C
Rel Hum Definition
%
Wind Dir Definition
10's deg

Wind Spd Definition
km/h
Visibility Definition
km
Stn Press Definition
kPa
Hmdx Definition


Wind Chill Definition


Weather Definition


TIME
00:00 -2.3 -3.7 90 2 6   99.60   -5 LegendNANA
01:00 -3.8 -4.9 92 35 7   99.57   -7 LegendNANA
02:00 -2.9 -3.9 92 33 11   99.54   -7 LegendNANA
03:00 -2.7 -3.7 93 32 12   99.53   -7 LegendNANA
04:00 -2.0 -3.5 90 35 17   99.53   -7 LegendNANA
05:00 -2.1 -2.9 95 34 18   99.52   -8 LegendNANA
06:00 -2.3 -2.8 96 33 18   99.51   -8 LegendNANA
07:00 -2.0 -2.6 96 33 19   99.47   -8 LegendNANA
08:00 -1.8 -2.9 92 33 19   99.44   -7 LegendNANA
09:00 -0.3 -1.2 94 33 10   99.42   -4 LegendNANA
10:00 0.5 -0.9 91 32 10   99.40     LegendNANA
11:00 1.5 -0.7 85 32 6   99.40     LegendNANA
12:00 2.2 -0.2 84 13 6   99.42     LegendNANA
13:00 2.4 -1.4 76 8 18   99.43     LegendNANA
14:00 1.3 -0.9 85 7 18   99.47     LegendNANA
15:00 0.6 -0.4 93 7 14   99.50     LegendNANA
16:00 0.4 -1.1 90 7 11   99.55     LegendNANA
17:00 0.4 -1.8 85 5 13   99.56     LegendNANA
18:00 -0.5 -2.6 86 1 6   99.56   -3 LegendNANA
19:00 -1.8 -3.8 86 36 11   99.57   -6 LegendNANA
20:00 -0.6 -2.6 86 33 9   99.58   -4 LegendNANA
21:00 -0.7 -2.8 86 36 12   99.54   -5 LegendNANA
22:00 -0.4 -1.8 90 34 14   99.54   -5 LegendNANA
23:00 -0.7 -1.8 92 33 13   99.53   -5 LegendNANA

Notes on Data Quality.

Legend

  • E = Estimated
  • M = Missing
  • NA = Not Available
  • ‡ = Partner data that is not subject to review by the National Climate Archives
Date modified: